Regional Weather Roundup
Issued by NWS New Orleans/Baton Rouge, LA

Home | Current Version | Previous Version | Graphics & Text | Print | Product List | Glossary On
Versions: 1 2 3 4 5 6 7 8 9 10 11 12 13 14 15 16 17 18 19 20 21 22 23 24 25 26 27 28 29 30 31 32 33 34 35 36 37 38 39 40 41 42 43 44 45 46 47 48 49 50
872
ASUS44 KLIX 301901
RWRLIX
NEW ORLEANS REGIONAL WEATHER ROUNDUP
NATIONAL WEATHER SERVICE NEW ORLEANS LA
200 PM CDT WED JUL 30 2014

NOTE: "FAIR" INDICATES FEW OR NO CLOUDS BELOW 12,000 FEET WITH NO
      SIGNIFICANT WEATHER AND/OR OBSTRUCTIONS TO VISIBILITY.
      SKY/WX - SKY CONDITION AND SIGNIFICANT WEATHER.
      TMP - AIR TEMPERATURE.     DP    - DEWPOINT TEMPERATURE.
      RH  - RELATIVE HUMIDITY.   PRES  - PRESSURE.
      HI  - HEAT INDEX.          WCI   - WIND CHILL INDEX.

*  THESE STATIONS ARE NOT NWS OR FAA STATIONS AND ARE NOT UNDER
   NWS QUALITY CONTROL.

LAZ038-040-048-061>063-065>067-069-302000-
SOUTHEAST LOUISIANA

CITY           SKY/WX    TMP DP  RH WIND       PRES   REMARKS
N.O. AUDUBON     N/A     89  64  43 MISG        N/A
N.O. INTL ARPT MOSUNNY   85  61  44 VRB7      30.04F
N.O. LAKEFRONT SUNNY     83  62  49 NW5       30.05F
N.O. DOWNTOWN*   N/A     86  57  37 N6        30.05S
SLIDELL        SUNNY     86  58  38 NW8       30.03F
BATON ROUGE    SUNNY     86  60  41 VRB5      30.05F
BOOTHVILLE     SUNNY     83  69  62 VRB7      30.04F
BELLE CHASSE   PTSUNNY   86  61  42 VRB6      30.03F
BOGALUSA*        N/A     84  57  39 N3        30.06F
GALLIANO*      NOT AVBL
NEW ROADS*       N/A     83  60  44 W3        30.05F
GONZALES*        N/A     84  63  47 CALM      30.03F
HAMMOND*       SUNNY     86  57  37 W3        30.06F
HOUMA*         MOSUNNY   90  64  43 NW6       30.03F
PORT FOURCHON* MOCLDY    84  70  61 CALM      30.05F

$$

MSZ070-080>082-302000-
SOUTHERN MISSISSIPPI

CITY           SKY/WX    TMP DP  RH WIND       PRES   REMARKS
MCCOMB         SUNNY     83  56  39 N6        30.07F
GULFPORT       SUNNY     89  57  33 N12       30.02F
BILOXI         SUNNY     86  58  38 N6        30.02F
PASCAGOULA     SUNNY     85  56  37 MISG      30.03F
STENNIS ARPT*  SUNNY    N/A N/A N/A N8        30.02F

$$

COASTAL OBSERVATIONS
LAKE AND NEARSHORE STATIONS

STATION/POSITION TIME  TEMP    WIND        PRES    WAVE
                       AIR SEA DIR/SP/G            HT/PER
                 (UTC) (F)     (DEG/KT/KT) (MB)    (FT/S)
PASCAGOULA       1800   85     330/  7/ 12 1016.5
WAVELAND YACHT   1800   81     350/  7/ 10 1016.5
GRAND ISLE       1800   84 86   40/  4/  5 1018.0
SOUTHWEST PASS   1800   91 85   20/  5/  6 1017.4
NEW CANAL        1800   80 83  360/  5/  7 1018.1
SHELL BEACH      1800   79 81  360/  3/  5 1017.4

OFFSHORE STATIONS

STATION/POSITION TIME  TEMP    WIND        PRES    WAVE
                       AIR SEA DIR/SP/G            HT/PER
                 (UTC) (F)     (DEG/KT/KT) (MB)    (FT/S)
64 S DAUPHIN ISL 1807   81 87   10/  4/  6 1016.9

$$




USA.gov is the U.S. government's official web portal to all federal, state and local government web resources and services.